timestamp,surface_pressure_avg,surface_temp_avg,battery_voltage,lat,long
2019-06-05 00:00:00+00:00,373.6179,5.91,12.97,47.84626,-54.09684
2019-06-05 00:10:00+00:00,368.2963,6.34,12.89,47.84626,-54.09684
2019-06-05 00:20:00+00:00,374.2063,5.6,12.97,47.84626,-54.09684
2019-06-05 00:30:00+00:00,382.5428,5.59,12.97,47.84626,-54.09684
2019-06-05 00:40:00+00:00,374.3796,5.98,12.97,47.84626,-54.09684
2019-06-05 00:50:00+00:00,366.1112,5.82,12.97,47.84626,-54.09684
2019-06-05 01:00:00+00:00,377.3679,5.6,12.89,47.84626,-54.09684
2019-06-05 01:10:00+00:00,376.9012,5.69,12.81,47.84626,-54.09684
2019-06-05 01:20:00+00:00,367.1545,5.92,12.89,47.84626,-54.09684
2019-06-05 01:30:00+00:00,364.2779,6.1,12.97,47.84626,-54.09684
2019-06-05 01:40:00+00:00,367.5812,6.1,12.97,47.84626,-54.09684
2019-06-05 01:50:00+00:00,362.7429,6.13,12.97,47.84626,-54.09684
2019-06-05 02:00:00+00:00,354.5363,6.22,12.89,47.84626,-54.09684
2019-06-05 02:10:00+00:00,351.0847,6.25,12.81,47.84626,-54.09684
2019-06-05 02:20:00+00:00,349.3412,6.23,12.89,47.84626,-54.09684
2019-06-05 02:30:00+00:00,342.2247,6.3,12.89,47.84626,-54.09684
2019-06-05 02:40:00+00:00,331.5413,6.34,12.97,47.84626,-54.09684
2019-06-05 02:50:00+00:00,326.4363,6.4,12.97,47.84626,-54.09684
2019-06-05 03:00:00+00:00,314.943,6.4,12.89,47.84626,-54.09684
2019-06-05 03:10:00+00:00,307.7664,6.4,12.81,47.84626,-54.09684
2019-06-05 03:20:00+00:00,300.3297,6.4,12.89,47.84626,-54.09684
2019-06-05 03:30:00+00:00,289.7714,6.48,12.89,47.84626,-54.09684
2019-06-05 03:40:00+00:00,281.8264,6.5,12.89,47.84626,-54.09684
2019-06-05 03:50:00+00:00,272.7114,6.5,12.97,47.84626,-54.09684
2019-06-05 04:00:00+00:00,262.9981,6.5,12.81,47.84626,-54.09684
2019-06-05 04:10:00+00:00,246.9898,6.54,12.81,47.84626,-54.09684
2019-06-05 04:20:00+00:00,238.0898,6.57,12.89,47.84626,-54.09684
2019-06-05 04:30:00+00:00,232.2381,6.55,12.89,47.84626,-54.09684
2019-06-05 04:40:00+00:00,221.5731,6.5,12.89,47.84626,-54.09684
2019-06-05 04:50:00+00:00,208.5998,6.5,12.89,47.84626,-54.09684
2019-06-05 05:00:00+00:00,199.6048,6.5,12.81,47.84626,-54.09684
2019-06-05 05:10:00+00:00,193.0281,6.5,12.73,47.84626,-54.09684
2019-06-05 05:20:00+00:00,183.5048,6.5,12.81,47.84626,-54.09684
2019-06-05 05:30:00+00:00,180.1198,6.54,12.81,47.84626,-54.09684
2019-06-05 05:40:00+00:00,180.1631,6.57,12.89,47.84626,-54.09684
2019-06-05 05:50:00+00:00,169.8981,6.61,12.89,47.84626,-54.09684
2019-06-05 06:00:00+00:00,161.5348,6.72,12.81,47.84626,-54.09684
2019-06-05 06:10:00+00:00,170.1098,6.8,12.73,47.84626,-54.09684
2019-06-05 06:20:00+00:00,173.2781,6.8,12.81,47.84626,-54.09684
2019-06-05 06:30:00+00:00,165.0998,6.8,12.81,47.84626,-54.09684
2019-06-05 06:40:00+00:00,170.5232,6.8,12.81,47.84626,-54.09684
2019-06-05 06:50:00+00:00,179.9982,6.8,12.89,47.84626,-54.09684
2019-06-05 07:00:00+00:00,176.1065,6.8,12.81,47.84626,-54.09684
2019-06-05 07:10:00+00:00,171.6598,6.81,12.73,47.84626,-54.09684
2019-06-05 07:20:00+00:00,178.2514,6.84,12.81,47.84626,-54.09684
2019-06-05 07:30:00+00:00,185.2531,6.8,12.81,47.84626,-54.09684
2019-06-05 07:40:00+00:00,183.5048,6.8,12.81,47.84626,-54.09684
2019-06-05 07:50:00+00:00,186.2365,6.82,12.81,47.84626,-54.09684
2019-06-05 08:00:00+00:00,195.8881,6.8,12.73,47.84626,-54.09684
2019-06-05 08:10:00+00:00,197.9415,6.82,12.73,47.84626,-54.09684
2019-06-05 08:20:00+00:00,198.7781,6.85,12.81,47.84626,-54.09684
2019-06-05 08:30:00+00:00,202.8765,6.85,12.81,47.84626,-54.09684
2019-06-05 08:40:00+00:00,205.2264,6.86,12.81,47.84626,-54.09684
2019-06-05 08:50:00+00:00,208.623,6.88,12.81,47.84626,-54.09684
2019-06-05 09:00:00+00:00,212.7081,6.88,12.81,47.84626,-54.09684
2019-06-05 09:10:00+00:00,215.4081,6.88,12.73,47.84626,-54.09684
2019-06-05 09:20:00+00:00,217.0348,6.9,12.81,47.84626,-54.09684
2019-06-05 09:30:00+00:00,224.1814,6.9,12.81,47.84626,-54.09684
2019-06-05 09:40:00+00:00,235.4847,6.9,12.81,47.84626,-54.09684
2019-06-05 09:50:00+00:00,241.2847,6.9,12.89,47.84626,-54.09684
2019-06-05 10:00:00+00:00,250.1414,6.9,12.81,47.84626,-54.09684
2019-06-05 10:10:00+00:00,258.5681,6.9,12.81,47.84626,-54.09684
2019-06-05 10:20:00+00:00,267.868,6.89,12.89,47.84626,-54.09684
2019-06-05 10:30:00+00:00,271.3097,6.89,12.97,47.84626,-54.09684
2019-06-05 10:40:00+00:00,275.0197,6.9,13.05,47.84626,-54.09684
2019-06-05 10:50:00+00:00,281.3264,6.9,13.13,47.84626,-54.09684
2019-06-05 11:00:00+00:00,290.738,6.9,13.21,47.84626,-54.09684
2019-06-05 11:10:00+00:00,295.9097,6.9,13.21,47.84626,-54.09684
2019-06-05 11:20:00+00:00,301.8497,6.9,13.53,47.84626,-54.09684
2019-06-05 11:30:00+00:00,309.6597,6.9,13.6,47.84626,-54.09684
2019-06-05 11:40:00+00:00,316.5646,6.82,13.68,47.84626,-54.09684
2019-06-05 11:50:00+00:00,324.3696,6.89,13.92,47.84626,-54.09684
2019-06-05 12:00:00+00:00,332.4579,6.9,13.84,47.84626,-54.09684
2019-06-05 12:10:00+00:00,334.7447,6.9,13.92,47.84626,-54.09684
2019-06-05 12:20:00+00:00,333.5646,6.9,14.0,47.84626,-54.09684
2019-06-05 12:30:00+00:00,336.778,6.9,14.16,47.84626,-54.09684
2019-06-05 12:40:00+00:00,338.2913,6.95,14.32,47.84626,-54.09684
2019-06-05 12:50:00+00:00,333.6931,6.94,14.8,47.84626,-54.09684
2019-06-05 13:00:00+00:00,334.5113,6.96,14.32,47.84626,-54.09684
2019-06-05 13:10:00+00:00,340.7446,6.92,14.16,47.84626,-54.09684
2019-06-05 13:20:00+00:00,335.3746,6.94,14.48,47.84626,-54.09684
2019-06-05 13:30:00+00:00,328.233,6.99,14.32,47.84626,-54.09684
2019-06-05 13:40:00+00:00,330.1113,7.0,14.32,47.84626,-54.09684
2019-06-05 13:50:00+00:00,330.1379,7.0,14.64,47.84626,-54.09684
2019-06-05 14:00:00+00:00,318.9913,7.0,14.72,47.84626,-54.09684
2019-06-05 14:10:00+00:00,316.0314,7.0,14.8,47.84626,-54.09684
2019-06-05 14:20:00+00:00,316.8613,7.0,14.8,47.84626,-54.09684
2019-06-05 14:30:00+00:00,314.9514,7.04,14.8,47.84626,-54.09684
2019-06-05 14:40:00+00:00,308.8397,7.1,14.64,47.84626,-54.09684
2019-06-05 14:50:00+00:00,300.4047,7.19,14.64,47.84626,-54.09684
2019-06-05 15:00:00+00:00,292.4247,7.2,14.72,47.84626,-54.09684
2019-06-05 15:10:00+00:00,287.0947,7.3,14.72,47.84626,-54.09684
2019-06-05 15:20:00+00:00,283.4413,7.4,14.64,47.84626,-54.09684
2019-06-05 15:30:00+00:00,277.1697,7.5,14.64,47.84626,-54.09684
2019-06-05 15:40:00+00:00,273.3664,7.6,14.64,47.84626,-54.09684
2019-06-05 15:50:00+00:00,268.7314,7.69,14.64,47.84626,-54.09684
2019-06-05 16:00:00+00:00,262.3914,7.7,14.64,47.84626,-54.09684
2019-06-05 16:10:00+00:00,253.2948,7.76,14.56,47.84626,-54.09684
2019-06-05 16:20:00+00:00,244.5198,7.8,14.64,47.84626,-54.09684
2019-06-05 16:30:00+00:00,234.3464,7.9,14.56,47.84626,-54.09684
2019-06-05 16:40:00+00:00,223.6531,7.97,14.56,47.84626,-54.09684
2019-06-05 16:50:00+00:00,213.1998,8.0,14.56,47.84626,-54.09684
2019-06-05 17:00:00+00:00,212.2998,8.0,14.48,47.84626,-54.09684
2019-06-05 17:10:00+00:00,205.3315,8.0,14.4,47.84626,-54.09684
2019-06-05 17:20:00+00:00,192.1064,8.0,14.48,47.84626,-54.09684
2019-06-05 17:30:00+00:00,187.8765,7.9,14.4,47.84626,-54.09684
2019-06-05 17:40:00+00:00,187.1365,7.7,14.4,47.84626,-54.09684
2019-06-05 17:50:00+00:00,182.2481,7.6,14.32,47.84626,-54.09684
2019-06-05 18:00:00+00:00,176.8648,7.6,14.24,47.84626,-54.09684
2019-06-05 18:10:00+00:00,174.0432,7.6,14.08,47.84626,-54.09684
2019-06-05 18:20:00+00:00,171.0198,7.6,14.16,47.84626,-54.09684
2019-06-05 18:30:00+00:00,167.6498,7.6,14.24,47.84626,-54.09684
2019-06-05 18:40:00+00:00,170.7531,7.63,14.24,47.84626,-54.09684
2019-06-05 18:50:00+00:00,174.3531,7.6,14.24,47.84626,-54.09684
2019-06-05 19:00:00+00:00,173.7465,7.6,14.16,47.84626,-54.09684
2019-06-05 19:10:00+00:00,176.1581,7.6,14.08,47.84626,-54.09684
2019-06-05 19:20:00+00:00,183.7781,7.4,14.16,47.84626,-54.09684
2019-06-05 19:30:00+00:00,194.1481,7.1,14.24,47.84626,-54.09684
2019-06-05 19:40:00+00:00,199.7998,7.1,14.24,47.84626,-54.09684
2019-06-05 19:50:00+00:00,197.1864,7.1,14.24,47.84626,-54.09684
2019-06-05 20:00:00+00:00,200.7165,7.15,14.16,47.84626,-54.09684
2019-06-05 20:10:00+00:00,208.8748,7.1,14.08,47.84626,-54.09684
2019-06-05 20:20:00+00:00,210.4448,7.0,14.08,47.84626,-54.09684
2019-06-05 20:30:00+00:00,214.3197,7.04,14.08,47.84626,-54.09684
2019-06-05 20:40:00+00:00,221.5281,7.06,14.08,47.84626,-54.09684
2019-06-05 20:50:00+00:00,225.0614,7.1,14.08,47.84626,-54.09684
2019-06-05 21:00:00+00:00,226.7964,7.1,14.0,47.84626,-54.09684
2019-06-05 21:10:00+00:00,232.6014,7.1,13.92,47.84626,-54.09684
2019-06-05 21:20:00+00:00,239.5514,7.18,14.0,47.84626,-54.09684
2019-06-05 21:30:00+00:00,243.8348,7.19,14.0,47.84626,-54.09684
2019-06-05 21:40:00+00:00,251.0714,7.1,14.0,47.84626,-54.09684
2019-06-05 21:50:00+00:00,259.9881,6.9,14.0,47.84626,-54.09684
2019-06-05 22:00:00+00:00,266.9614,6.81,13.92,47.84626,-54.09684
2019-06-05 22:10:00+00:00,269.2514,6.9,13.76,47.84626,-54.09684
2019-06-05 22:20:00+00:00,271.9081,6.92,13.84,47.84626,-54.09684
2019-06-05 22:30:00+00:00,282.8431,6.9,13.76,47.84626,-54.09684
2019-06-05 22:40:00+00:00,291.6947,6.8,13.76,47.84626,-54.09684
2019-06-05 22:50:00+00:00,294.8047,6.93,13.76,47.84626,-54.09684
2019-06-05 23:00:00+00:00,300.5414,6.99,13.68,47.84626,-54.09684
2019-06-05 23:10:00+00:00,311.1646,6.75,13.44,47.84626,-54.09684
2019-06-05 23:20:00+00:00,321.7363,6.6,13.44,47.84626,-54.09684
2019-06-05 23:30:00+00:00,329.2479,6.6,13.44,47.84626,-54.09684
2019-06-05 23:40:00+00:00,341.0347,6.6,13.37,47.84626,-54.09684
2019-06-05 23:50:00+00:00,349.1096,6.6,13.37,47.84626,-54.09684
